OpenBCM V2.0.3 (Linux)

Packet Radio Mailbox

IZ3LSV

[San Dona' di P. JN]

 Login: GUEST





  
LU1HVK > KEP      05.09.19 18:14l 244 Lines 12026 Bytes #999 (0) @ WW
BID : 30727_LU1HVK
Read: GUEST
Subj: TLE 31 08
Path: IZ3LSV<ED1ZAC<F1OYP<VE2PKT<N3HYM<IV3BVK<IK5FKA<LU9HGS<LU1HVK
Sent: 190831/1603Z 30727@LU1HVK.2594.CBA.ARG.SA LinBPQ6.0.18

                         _    _   _ _ _   ___     ___  __
                        | |  | | | / | | | \ \   / / |/ /
                        | |  | | | | | |_| |\ \ / /| ' /
                        | |__| |_| | |  _  | \ V / | . \
                        |_____\___/|_|_| |_|  \_/  |_|\_\

     BBS/NODO - CORDOBA (LEONES-FF87UH) - LU1HVK-4 NODO - LU1HVK-3 APRS

+----------------------------------------------------------------------------+
OSCAR 7
1  7530U 74089B   19242.88254679 -.00000050 +00000-0 -31561-4 0  9997
2  7530 101.7511 209.8124 0011846 204.6110 210.9542 12.53639531049456
OSCAR 11 (UoSAT 2)
1 14781U 84021B   19243.10536406  .00000059  00000-0  13321-4 0  9998
2 14781  97.6081 264.3385 0010019  80.7058 279.5289 14.83102722909644
OSCAR 19 (LUSAT)
1 20442U 90005G   19242.91763670 -.00000027 +00000-0 +66003-5 0  9993
2 20442 098.6520 184.8095 0010752 296.7560 063.2523 14.32931271546806
EYESAT A
1 22825U 93061C   19243.52455417 -.00000025  00000-0  81209-5 0  9993
2 22825  98.9085 233.8638 0009088 138.3623 221.8252 14.30065163352500
ITAMSAT
1 22826U 93061D   19242.94942098 -.00000006 +00000-0 +15356-4 0  9993
2 22826 098.9024 233.2574 0009735 129.7582 230.4458 14.30399084352375
RADIO ROSTO
1 23439U 94085A   19242.86308363 -.00000055 +00000-0 -36255-3 0  9998
2 23439 064.8199 357.7961 0145774 099.0483 262.6969 11.27568385016147
JAS 2
1 24278U 96046B   19243.19918844 -.00000035  00000-0 -11821-5 0  9999
2 24278  98.5481  26.6651 0351121  49.5530 313.5675 13.53093099137749
TECHSAT 1B
1 25397U 98043D   19242.85215424 -.00000022  00000-0  95564-5 0  9998
2 25397  98.6915 182.1219 0001597 139.7677 220.3620 14.23669556 98281
ISS (ZARYA)
1 25544U 98067A   19243.52516204  .00000075  00000-0  92865-5 0  9991
2 25544  51.6457 347.5594 0007978 349.5248 184.8419 15.50398279186945
PCSAT
1 26931U 01043C   19243.26009624 -.00000049  00000-0  12923-4 0  9992
2 26931  67.0513 173.8375 0007480 273.1735  86.8510 14.30550561935494
SAUDISAT 1C
1 27607U 02058C   19243.21752310 -.00000049  00000-0  14050-4 0  9995
2 27607  64.5547 184.7989 0078117 242.3531 116.9627 14.75567520897889
CUTE-1
1 27844U 03031E   19242.96185852 +.00000034 +00000-0 +35026-4 0  9991
2 27844 098.6849 250.0811 0009903 172.2823 187.8509 14.22191709838669
CUBESAT XI 4
1 27848U 03031J   19242.83412857 +.00000021 +00000-0 +29421-4 0  9997
2 27848 098.6925 250.4708 0009560 184.2327 175.8771 14.21785234838500
MOZHAYETS 4
1 27939U 03042A   19243.44943287  .00000053  00000-0  18157-4 0  9993
2 27939  98.0509  17.8703 0012893 188.6010 171.4984 14.66798885851354
CUBESAT XI 5
1 28895U 05043F   19242.92924345 +.00000064 +00000-0 +21028-4 0  9997
2 28895 097.9694 023.1916 0018072 118.6793 241.6229 14.63685375737969
CUTE-1.7+APD II
1 32785U 08021C   19243.16934915  .00000136  00000-0  20326-4 0  9990
2 32785  97.5528 239.4289 0013740  25.8588 334.3314 14.88335947614612
DELFI C3
1 32789U 08021G   19242.92178837 +.00000517 +00000-0 +38444-4 0  9993
2 32789 097.4588 290.3583 0010924 229.2736 130.7544 15.07071629617892
SEEDS
1 32791U 08021J   19242.99683253  .00000148  00000-0  20323-4 0  9993
2 32791  97.5299 245.3089 0013317   1.1510 358.9737 14.90857066615032
YUBELEINY
1 32953U 08025A   19243.44827157  .00000020  00000-0  75656-4 0  9999
2 32953  82.5010  98.9006 0019380 330.9912  29.0087 12.43091025511471
PRISM (HITOMI)
1 33493U 09002B   19243.20342343  .00000957  00000-0  89231-4 0  9991
2 33493  98.1200 166.9445 0013770 303.6291  56.3615 14.96710837576146
KKS-1 (KISEKI)
1 33499U 09002H   19243.52699635  .00000071  00000-0  18459-4 0  9992
2 33499  98.3462  84.5750 0008702 339.6202  20.4658 14.75457930570117
SWISSCUBE
1 35932U 09051B   19243.04532395  .00000090  00000-0  31394-4 0  9990
2 35932  98.5952  51.1947 0006603 305.9473  54.1110 14.56303935527459
BEESAT
1 35933U 09051C   19243.45609084  .00000077  00000-0  28315-4 0  9990
2 35933  98.5974  53.4083 0004993 322.0980  37.9864 14.56390781527622
ITUPSAT 1
1 35935U 09051E   19242.93766565 +.00000042 +00000-0 +20922-4 0  9990
2 35935 098.6083 053.1065 0007266 318.1603 041.9037 14.55547855527269
XIWANG-1 (HOPE-1)
1 36122U 09072B   19243.15623834 -.00000025  00000-0  45831-4 0  9996
2 36122 100.0751 242.0884 0007174 173.0178 187.1031 13.16350996466543
TISAT 1
1 36799U 10035E   19242.96046023  .00000212  00000-0  27508-4 0  9992
2 36799  98.1651  37.5830 0011811 199.5796 160.4969 14.91141543495680
JUGNU
1 37839U 11058B   19242.36082760 +.00000320 +00000-0 +28896-4 0  9997
2 37839 019.9605 254.1048 0019122 048.5737 075.8292 14.12656856407542
SRMSAT
1 37841U 11058D   19242.51398215 +.00000315 +00000-0 +28180-4 0  9992
2 37841 019.9726 311.4586 0011713 277.3841 205.4523 14.10637398406982
M-CUBED/EXP-1 PRIME
1 37855U 11061F   19242.77173787 +.00000631 +00000-0 +39679-4 0  9990
2 37855 101.7101 175.8794 0173033 220.1080 138.7253 15.05547656427301
HORYU 2
1 38340U 12025D   19242.73570364  .00000127  00000-0  26595-4 0  9992
2 38340  98.3239 283.4970 0010272 248.8295 111.1816 14.75741619391936
STRAND 1
1 39090U 13009E   19242.85492015 +.00000019 +00000-0 +21920-4 0  9994
2 39090 098.4826 087.5649 0010364 073.4516 286.7807 14.35094790340860
SOMP
1 39134U 13015E   19243.17055402  .00000791  00000-0  45251-4 0  9991
2 39134  64.8632 142.3604 0034971 291.0627  68.6762 15.20275984351762
BEESAT 3
1 39135U 13015F   19242.95977184 +.00000638 +00000-0 +41260-4 0  9993
2 39135 064.8692 162.3782 0031136 304.2592 055.5586 15.17564319350976
BEESAT 2
1 39136U 13015G   19243.28831711  .00000868  00000-0  53530-4 0  9994
2 39136  64.8684 165.3509 0023173 304.7199  55.1744 15.16981342351339
CUBEBUG 1
1 39153U 13018D   19243.22515498  .00000132  00000-0  24158-4 0  9999
2 39153  97.9804 340.9451 0016007 324.1518  35.8618 14.80587284342696
ZACUBE
1 39417U 13066B   19242.93757607 +.00000137 +00000-0 +23465-4 0  9997
2 39417 097.5626 252.3234 0059664 152.5034 207.9358 14.81139682311880
TRITON 1
1 39427U 13066M   19243.14470042  .00000157  00000-0  33423-4 0  9994
2 39427  97.6834 216.0110 0112405 290.6544  68.2639 14.67870492309114
GOMX 1
1 39430U 13066Q   19243.40298702  .00000148  00000-0  35756-4 0  9999
2 39430  97.7517 195.1232 0151935  22.2738 338.4966 14.59275530307356
HUMSAT D
1 39433U 13066T   19243.10751129  .00000106  00000-0  15605-4 0  9991
2 39433  97.5479 287.5903 0032057  57.5811 302.8503 14.92234275314023
CUBEBUG 2
1 39440U 13066AA  19243.51552001  .00000136  00000-0  26009-4 0  9995
2 39440  97.6059 237.6078 0079512 204.1670 155.5802 14.75878103310863
FUNCUBE 1
1 39444U 13066AE  19243.16769774  .00000177  00000-0  28053-4 0  9993
2 39444  97.5603 254.5569 0058963 145.3742 215.1334 14.81963530310811
UWE-3
1 39446U 13066AG  19242.98721401  .00000116  00000-0  22044-4 0  9996
2 39446  97.5833 244.2106 0070005 179.5982 180.5298 14.78412524310099
SPROUT
1 39770U 14029E   19243.36390473  .00000313  00000-0  40686-4 0  9991
2 39770  97.8873 346.1935 0008160 195.4996 164.5966 14.87398394285782
UNISAT 6
1 40012U 14033C   19242.85499770  .00000139  00000-0  28149-4 0  9996
2 40012  97.7479 106.2803 0057248 220.8423 138.8489 14.73999437279464
DUCHIFAT 1
1 40021U 14033M   19242.77876148  .00000135  00000-0  19627-4 0  9992
2 40021  97.9225 167.6135 0013111 162.6617 197.5051 14.90666443282438
QB50P1
1 40025U 14033R   19242.74920394  .00000134  00000-0  20267-4 0  9997
2 40025  97.9031 162.3103 0012444 172.5536 187.5868 14.88970907282190
CHUBUSAT 1
1 40300U 14070C   19243.41572135  .00000330  00000-0  17347-4 0  9998
2 40300  97.3233 315.7212 0020109 153.3491 267.7493 15.22143403267238
NUDT-PHONESAT
1 40900U 15049B   19243.29497894  .00001276  00000-0  57296-4 0  9992
2 40900  97.4377 251.9135 0011135 290.0483 125.9965 15.22967297218867
ZDPS 2A
1 40901U 15049C   19243.31287248  .00000539  00000-0  29996-4 0  9993
2 40901  97.4610 248.0763 0012275 312.7004 105.1486 15.17800592218405
ZDPS 2B
1 40902U 15049D   19243.35549448  .00000694  00000-0  37782-4 0  9995
2 40902  97.4551 245.5583 0012137 309.3835 157.3546 15.17641328218386
XW-2A
1 40903U 15049E   19243.36423912  .00001281  00000-0  31994-4 0  9996
2 40903  97.3321 286.5272 0012042 234.1726 180.9339 15.42023561221602
KAITUO 1A
1 40904U 15049F   19243.49562679  .00000233  00000-0  15830-4 0  9992
2 40904  97.4684 244.2470 0013535 317.4197 160.8362 15.15407332218175
OBJECT G
1 40905U 15049G   19243.36195758 -.00000025  00000-0  22266-5 0  9991
2 40905  97.4725 241.5909 0014518 312.3469 154.8980 15.14325460218020
XW-2C
1 40906U 15049H   19243.54724345  .00000509  00000-0  30169-4 0  9998
2 40906  97.4689 244.4086 0013687 308.4374 169.5198 15.15729536218189
XW-2D
1 40907U 15049J   19243.58124759  .00000373  00000-0  22926-4 0  9997
2 40907  97.4674 244.1230 0012837 305.0208 170.8106 15.15921003218207
LILACSAT 2
1 40908U 15049K   19243.36450616 -.00000071  00000-0 -31431-6 0  9998
2 40908  97.4801 242.6662 0014794 312.5253 154.7460 15.13831945217957
XW-2F
1 40910U 15049M   19243.54080234  .00000839  00000-0  45314-4 0  9999
2 40910  97.4640 246.1866 0013170 296.8596 189.4101 15.17383443218213
XW-2B
1 40911U 15049N   19243.49178591  .00000470  00000-0  28040-4 0  9996
2 40911  97.4689 244.6957 0012870 306.7273 204.4560 15.15850252218087
KAITUO 1B
1 40912U 15049P   19243.53099516  .00000703  00000-0  36098-4 0  9992
2 40912  97.4501 249.9315 0013232 276.1199 241.8054 15.19704489218523
TIANWANG 1C (TW-1C)
1 40926U 15051B   19243.39512910  .00008853  00000-0  12443-3 0  9993
2 40926  97.1301 289.5062 0009808  98.2218 318.9090 15.56868982221622
TIANWANG 1B (TW-1B)
1 40927U 15051C   19243.57663012  .00007989  00000-0  11947-3 0  9991
2 40927  97.1324 288.9076 0009981 106.8492  51.1319 15.55214263221499
